Location: Wiler
(46.4041°N, 7.7840°E)
Time: 07:09:45
(UTC+00:00)

Daily predictions for brighter satellites

Satellite Brightness Start Highest point End
(mag) Time Altitude Azimuth Time Altitude Azimuth Time Altitude Azimuth
Meteor 1-16 Rocket 4.2 18:32:42 10° S 18:38:02 63° E 18:43:35 10° NNE
Cosmos 614 Rocket 4.2 18:33:17 10° S 18:38:18 51° ESE 18:43:21 10° NNE
APEX 4.4 18:32:07 10° NNW 18:38:37 64° ENE 18:43:52 10° SE
CZ-2C R/B 3.1 18:34:09 10° SSE 18:38:50 52° ENE 18:43:26 10° N
MONITOR-E 4.4 18:39:46 10° SE 18:42:13 35° ENE 18:44:40 10° N
STARLINK-29 3.4 18:39:36 10° SSW 18:42:37 41° SE 18:45:41 10° ENE
Cosmos 1190 Rocket 4.4 18:39:28 10° S 18:44:24 41° ESE 18:49:20 10° NE
SJ-6B 3.4 18:41:27 10° SE 18:45:21 43° ENE 18:49:17 10° N
Aureole 1 Rocket 4.2 18:38:12 10° S 18:45:26 57° ESE 18:51:08 10° NNE
IRIDIUM 104 4.3 18:40:51 10° N 18:46:07 84° E 18:51:19 10° S
Cosmos 1300 4.4 18:44:33 10° SE 18:46:54 16° E 18:49:15 10° NE
BREEZE-M DEB (TANK) 3.9 18:40:04 10° WNW 18:47:50 77° NNE 18:50:46 10° ESE
STARLINK-60 3.1 18:46:54 10° WSW 18:50:11 83° NNW 18:53:29 10° ENE
Cosmos 2369 Rocket 3.7 18:45:31 10° NW 18:50:44 38° WSW 18:55:53 10° S
ARGOS Delta rocket 4.4 18:46:23 10° S 18:51:45 79° W 18:57:16 10° NNW
CZ-2C R/B 4.4 18:50:56 10° NNE 18:55:11 33° E 18:59:20 10° SSE
IRIDIUM 114 4.5 18:50:01 10° N 18:55:15 82° W 19:00:28 10° S
Cosmos 2058 Rocket 3.5 18:54:53 10° SSE 18:59:08 43° E 19:03:25 10° NNE
Cosmos 1726 Rocket 3.5 18:57:22 10° S 19:01:46 71° E 19:06:12 10° NNE
SL-08 RB Rocket 3.8 18:57:53 10° SSE 19:02:21 57° ENE 19:06:54 10° N
STARLINK-1228 2.7 19:00:23 10° WNW 19:03:21 78° NNE 19:05:31 16° ESE
Cosmos 1461 3.1 18:58:52 10° NW 19:03:26 83° NE 19:08:01 11° SE
Cosmos 921 Rocket 3.2 19:01:49 10° N 19:05:54 50° ENE 19:09:43 12° SE
Cosmos 1703 3.4 19:02:21 10° N 19:06:21 83° W 19:10:18 10° S
Cosmos 1726 3.3 19:02:53 10° SSW 19:06:30 47° WNW 19:10:08 10° N
SL-4 R/B 2.3 19:03:25 10° W 19:06:45 51° NNW 19:10:07 10° ENE
Meteor 2-17 Rocket 4.4 19:00:50 10° N 19:07:01 73° E 19:13:09 10° SSE
Cosmos 2341 Rocket 4.5 19:00:56 10° N 19:07:02 44° ENE 19:13:05 10° SE
Cosmos 2184 Rocket 4.3 19:02:35 10° NNW 19:08:52 73° W 19:15:01 10° S
CZ-4C R/B 4.3 19:04:15 10° NNW 19:09:24 23° NNE 19:15:12 10° ENE
Cosmos 1825 Rocket 4.2 19:05:21 10° NNW 19:09:40 59° W 19:13:56 10° S
Cosmos 407 Rocket 3.4 19:04:47 10° SSW 19:09:55 79° ESE 19:15:03 10° NNE
Cosmos 1908 3.2 19:06:20 10° S 19:10:12 89° ESE 19:14:07 10° N
Cosmos 1340 Rocket 2.8 19:06:42 10° S 19:10:39 58° E 19:14:37 10° NNE
STARLINK-1246 4.4 19:06:57 10° NW 19:10:56 44° NNE 19:14:15 14° E
FREGAT/IRIS 2.9 19:08:30 10° S 19:11:10 60° W 19:13:53 10° NNW
STARLINK-1201 3.2 19:09:09 10° NW 19:12:24 63° NNE 19:14:33 19° ESE
Cosmos 1656 Rocket 4.5 19:07:11 10° NW 19:12:39 52° WSW 19:18:01 10° S
Cosmos 2228 3.2 19:08:22 10° SSW 19:12:40 76° W 19:17:03 10° N
Cosmos 1328 4.1 19:09:02 10° NNW 19:13:03 72° W 19:17:01 10° S
Cosmos 676 Rocket 4.3 19:08:36 10° S 19:13:35 44° ESE 19:18:33 10° NNE
STARLINK-1224 4.3 19:11:58 10° NW 19:15:59 46° NNE 19:19:04 16° E
Cosmos 1943 4.5 19:11:39 10° SW 19:17:05 45° NW 19:22:34 10° NNE
STARLINK-1203 4.2 19:14:06 10° NW 19:18:12 49° NNE 19:21:13 17° E
MOS 1 4.5 19:12:45 10° S 19:18:24 76° WSW 19:24:06 10° NNW
MetOp-A 4.2 19:13:59 10° SSE 19:19:16 64° ENE 19:24:34 10° N
Cosmos 2058 4.3 19:16:38 10° NNE 19:19:48 21° ENE 19:21:10 18° E
Resurs 01 Rocket 2.2 19:17:43 17° SE 19:20:42 38° ENE 19:24:48 10° N
STARLINK-1225 4.2 19:16:57 10° NW 19:20:59 48° NNE 19:23:51 18° E
STARLINK-52 2.8 19:19:44 10° SW 19:22:56 82° SSE 19:25:57 12° ENE
MOS 1 Rocket 3.9 19:17:45 10° NNE 19:22:59 46° E 19:28:11 10° S
CZ-2C R/B 2.9 19:19:22 10° NNE 19:24:18 42° E 19:29:14 10° S
Nadezhda 1 Rocket 4.1 19:18:34 10° S 19:24:58 85° W 19:31:21 10° N
BREEZE M DEB (TANK) 3.2 19:22:46 10° SSW 19:25:40 38° SE 19:32:39 10° ENE
STARLINK-1230 4.2 19:21:55 10° NW 19:25:58 50° NNE 19:28:37 20° E
Cosmos 962 Rocket 4.4 19:21:52 10° N 19:28:00 66° E 19:34:04 10° SSE
SPOT 3 Rocket 3.5 19:23:08 10° SSE 19:28:21 80° ENE 19:33:34 10° NNW
Cosmos 1023 Rocket 4.4 19:23:41 10° SSW 19:28:51 87° ESE 19:34:01 10° NNE
SL-24 R/B - RUBIN 2 4.5 19:23:52 10° SW 19:29:31 77° NW 19:35:54 10° NE
Cosmos 1697 Rocket 4.4 19:25:36 10° N 19:29:41 20° NE 19:32:44 13° E
ARGOS 3.6 19:24:32 10° S 19:29:51 62° WSW 19:35:12 10° NNW
SL-8 Rocket 4.3 19:24:28 10° N 19:30:35 48° ENE 19:35:13 17° SE
STARLINK-1243 4.1 19:26:53 10° NW 19:30:57 52° NNE 19:33:24 22° E
FALCON 9 DEB 3.1 19:27:48 10° WSW 19:31:17 87° NNW 19:34:33 12° ENE
Cosmos 2154 Rocket 4.2 19:25:32 10° NNW 19:31:53 76° W 19:38:10 10° S
Cosmos 1953 Rocket 4.5 19:28:23 10° NNW 19:32:44 51° W 19:37:04 10° SSW
Iridium 2 4.5 19:33:27 26° ESE 19:34:31 31° E 19:37:56 10° NNE
NOSS 3-4 (A) 4.3 19:28:07 10° NW 19:35:02 59° WSW 19:42:33 10° SSE
Cosmos 1954 Rocket 3.9 19:29:57 10° S 19:35:08 65° ESE 19:40:18 10° NNE
NOSS 3-4 (C) 4.3 19:28:14 10° NW 19:35:09 60° WSW 19:42:37 10° SSE
Cosmos 2181 Rocket 4.2 19:29:22 10° SSE 19:35:17 47° E 19:41:09 10° NNE
USA 186 3.6 19:32:32 10° SSW 19:35:29 30° W 19:38:18 10° NNW
STARLINK-1236 4.0 19:31:52 10° WNW 19:35:57 55° NNE 19:38:11 25° E
MINOTAUR IV R/B 4.5 19:32:00 10° SSW 19:36:26 71° ESE 19:40:54 10° NNE
STARLINK-67 4.0 19:36:31 10° W 19:38:45 26° SW 19:39:24 23° SSW
Cosmos 2366 rocket 4.3 19:38:46 10° N 19:44:43 48° ENE 19:48:11 24° SE
Cosmos 1076 Rocket 4.1 19:41:02 10° N 19:45:05 39° ENE 19:46:20 31° ESE
STARLINK-1269 3.8 19:41:49 10° WNW 19:45:56 62° NNE 19:47:44 31° E
BREEZE-M DEB (TANK) 4.3 19:41:51 10° SSW 19:45:56 26° SSE 19:45:56 26° SSE
Cosmos 1656 4.4 19:43:39 10° NNW 19:48:57 38° NE 19:51:23 26° ESE
Cosmos 1763 Rocket 4.1 19:44:43 10° N 19:49:35 39° ENE 19:51:29 29° ESE
STARLINK-1200 3.8 19:46:47 10° WNW 19:50:56 65° NNE 19:52:31 35° E
Cosmos 1455 4.2 19:56:32 16° ENE 19:56:32 16° ENE 19:57:46 10° NE
STARLINK-1234 3.7 19:52:23 10° WNW 19:55:20 39° SW 19:55:47 36° SSW
STARLINK-1209 3.8 19:52:52 10° WNW 19:55:47 37° SW 19:56:15 34° SSW
STARLINK-1192 3.7 19:51:46 10° WNW 19:55:55 69° NNE 19:57:18 39° E
STARLINK-1233 3.2 19:53:10 10° WNW 19:56:15 53° SW 19:56:38 49° S
STARLINK-1212 3.2 19:53:39 10° WNW 19:56:43 52° SW 19:57:04 49° S
STARLINK-1105 3.2 19:54:05 10° WNW 19:57:10 52° SW 19:57:31 48° S
STARLINK-1206 3.2 19:54:34 10° WNW 19:57:37 51° SW 19:57:55 48° SSW
STARLINK-1247 3.2 19:55:01 10° WNW 19:58:04 51° SW 19:58:22 48° SSW
STARLINK-1227 3.3 19:55:26 10° WNW 19:58:30 50° SW 19:58:47 48° SSW
Iridium 4 Rocket 3.4 19:54:37 10° N 19:58:35 41° E 19:59:06 39° ESE
STARLINK-1218 3.3 19:55:56 10° WNW 19:58:58 50° SW 19:59:13 48° SSW
STARLINK-1226 3.3 19:56:22 10° WNW 19:59:25 49° SW 19:59:40 48° SSW
Cosmos 1980 Rocket 3.9 19:55:55 10° N 19:59:50 19° NE 20:02:02 15° ENE
STARLINK-1254 3.3 19:56:48 10° WNW 19:59:51 49° SW 20:00:06 47° SSW
USA 234 3.7 19:54:07 10° ENE 20:00:06 37° SE 20:06:04 10° SSW
STARLINK-1215 3.3 19:57:17 10° WNW 20:00:19 48° SW 20:00:32 47° SSW
STARLINK-1231 3.3 19:57:45 10° WNW 20:00:46 48° SW 20:00:58 47° SSW
Cosmos 1174 4.2 19:56:46 10° NNW 20:00:55 66° NE 20:02:39 38° ESE
STARLINK-1244 3.6 19:56:50 10° WNW 20:00:59 74° NNE 20:02:10 44° E
STARLINK-1232 3.4 19:58:39 10° WNW 20:01:40 47° SW 20:01:50 46° SSW
Cosmos 1892 3.1 19:58:15 10° N 20:01:59 43° ENE 20:02:13 42° E
STARLINK-1217 3.4 19:59:06 10° WNW 20:02:08 46° SW 20:02:16 46° SSW
Abrixas rocket 2.8 19:59:29 10° W 20:02:07 39° SW 20:02:07 39° SW
STARLINK-1208 3.4 19:59:31 10° WNW 20:02:33 46° SW 20:02:43 46° SSW
STARLINK-1229 3.4 20:00:00 10° WNW 20:03:01 46° SW 20:03:07 45° SSW
STARLINK-1271 3.4 20:00:27 10° WNW 20:03:28 45° SW 20:03:34 45° SSW
H-2A R/B 4.0 19:59:19 10° SSW 20:03:36 26° W 20:07:49 10° NW
STARLINK-1270 3.5 20:00:55 10° WNW 20:03:55 45° SW 20:04:00 45° SSW
STARLINK-1154 3.5 20:01:22 10° WNW 20:04:22 44° SW 20:04:26 44° SSW
ATLAS 5 CENTAUR R/B 2.8 20:01:00 10° WSW 20:05:01 42° NW 20:09:35 10° NNE
STARLINK-1197 3.5 20:02:17 10° WNW 20:05:16 43° SW 20:05:18 43° SW
STARLINK-1189 3.5 20:02:43 10° WNW 20:05:42 43° SW 20:05:43 43° SW
STARLINK-1138 3.6 20:01:44 10° WNW 20:05:53 78° NNE 20:06:52 50° ESE
STARLINK-1198 3.6 20:03:11 10° WNW 20:06:10 43° SW 20:06:10 43° SW
Cosmos 1825 4.0 20:03:35 10° NNE 20:05:39 19° NE 20:05:39 19° NE
STARLINK-1188 3.6 20:03:37 10° WNW 20:06:34 42° SW 20:06:34 42° SW
ATLAS 2AS CENTAUR R/B 4.0 20:00:14 10° NW 20:06:51 36° WSW 20:13:00 10° S
STARLINK-1235 4.0 20:04:21 10° WNW 20:07:14 33° SW 20:07:18 33° SW
Cosmos-2242 4.3 20:08:42 25° ENE 20:08:42 25° ENE 20:11:21 10° NNE
STARLINK-1187 3.8 20:04:43 10° WNW 20:07:41 37° SW 20:07:42 37° SW
STARLINK-1199 3.7 20:05:34 10° WNW 20:08:31 41° SW 20:08:31 41° SW
STARLINK-1191 3.7 20:06:01 10° WNW 20:08:56 40° SW 20:08:56 40° SW
STARLINK-1210 3.7 20:06:29 10° WNW 20:09:23 40° SW 20:09:23 40° SW
STARLINK-1221 3.8 20:06:56 10° WNW 20:09:49 40° SW 20:09:49 40° SW
COSMOS 2455 3.4 20:04:17 10° NW 20:10:08 52° WSW 20:13:57 21° S
STARLINK-1219 3.8 20:07:24 10° WNW 20:10:15 39° SW 20:10:15 39° SW
STARLINK-1222 3.8 20:07:50 10° WNW 20:10:40 39° SW 20:10:40 39° SW
STARLINK-1143 3.5 20:06:42 10° WNW 20:10:51 83° NNE 20:11:39 57° ESE
STARLINK-1211 3.8 20:08:18 10° WNW 20:11:07 38° SW 20:11:07 38° SW
STARLINK-1214 3.9 20:08:45 10° WNW 20:11:33 38° SW 20:11:33 38° SW
STARLINK-1245 3.9 20:09:14 10° WNW 20:11:58 37° SW 20:11:58 37° SW
STARLINK-1238 3.9 20:09:38 10° WNW 20:12:25 37° SW 20:12:25 37° SW
Cosmos 1356 Rocket 4.5 20:13:46 30° ENE 20:13:46 30° ENE 20:16:39 10° NNE
STARLINK-1205 4.0 20:10:36 10° WNW 20:13:16 36° SW 20:13:16 36° SW
STARLINK-1204 4.0 20:11:03 10° WNW 20:13:42 35° SW 20:13:42 35° SW
ERBS 2.2 20:11:01 10° NW 20:14:20 80° N 20:14:20 80° N
STARLINK-1241 3.5 20:11:43 10° WNW 20:15:53 89° NE 20:16:28 65° ESE
STARLINK-29 4.3 20:15:47 10° W 20:18:49 38° NNW 20:19:45 30° NNE
IGS 5A 3.6 20:20:27 51° ENE 20:20:31 51° ENE 20:24:34 10° N
STARLINK-1239 3.4 20:16:41 10° WNW 20:20:51 86° SSW 20:21:14 72° SE
SAR-Lupe-2 3.4 20:17:40 10° NNE 20:21:14 87° ENE 20:21:14 87° ENE
ATLAS CENTAUR R/B 2.7 20:18:49 10° NNW 20:22:04 24° NE 20:22:10 24° NE
Cosmos 1300 4.0 20:18:37 10° SSW 20:22:13 39° WNW 20:25:50 10° N
Spot 2 Rocket 3.4 20:22:15 45° SSE 20:23:50 81° ENE 20:28:58 10° NNW
USA 32 4.2 20:20:42 10° N 20:25:48 50° E 20:26:23 48° ESE
STARLINK-1240 3.4 20:21:40 10° WNW 20:25:49 81° SSW 20:26:01 77° S
Cosmos 1850 Rocket 3.8 20:24:21 28° S 20:27:04 74° ESE 20:32:15 10° NNE
Cosmos 841 Rocket 3.9 20:23:44 10° NNW 20:28:50 47° ENE 20:29:32 44° E
Terra 2.9 20:29:53 29° ENE 20:29:53 29° ENE 20:33:52 10° N
In-Cosmos 22 Rocket 4.4 20:24:04 10° NNW 20:29:54 72° W 20:32:45 31° S
STARLINK-1216 3.5 20:26:38 10° WNW 20:30:47 75° SSW 20:30:48 75° SSW
SPOT 5 3.4 20:31:40 36° NE 20:31:40 36° NE 20:35:15 10° N
Cosmos 2082 Rocket 4.0 20:34:09 16° ENE 20:34:09 16° ENE 20:35:42 10° NE
Meteor 2-10 Rocket 3.6 20:33:52 52° E 20:33:59 53° E 20:39:16 10° NNE
MetOp-B 4.2 20:32:14 39° S 20:34:17 73° WSW 20:39:41 10° NNW
SL-08 R/B 4.4 20:28:36 10° N 20:34:47 77° E 20:36:45 46° SSE
STARLINK-1237 3.7 20:31:36 10° WNW 20:35:33 68° SW 20:35:33 68° SW
Cosmos 1833 Rocket 3.4 20:39:02 36° ENE 20:39:02 36° ENE 20:42:55 10° NE
CARTOSAT-1 4.1 20:39:31 44° NE 20:39:31 44° NE 20:43:10 10° N
STARLINK-1202 3.9 20:36:36 10° WNW 20:40:21 61° WSW 20:40:21 61° WSW
Cosmos 468 Rocket 4.1 20:36:14 10° NNW 20:41:22 67° WSW 20:42:31 51° SSW
SL-4 R/B 3.1 20:43:36 10° WNW 20:46:33 33° N 20:46:33 33° N
ERS-1 Rocket 2.9 20:47:01 67° E 20:47:13 68° ENE 20:52:13 10° N
Cosmos 1408 3.5 20:44:18 10° N 20:46:55 44° N 20:46:55 44° N
STARLINK-1246 4.3 20:46:35 10° WNW 20:49:54 47° WSW 20:49:54 47° WSW
RESURS DK-1 2.7 20:46:42 10° NNW 20:50:15 63° NNW 20:50:15 63° NNW
Cosmos 1766 Rocket 4.0 20:49:10 10° N 20:52:50 53° NNE 20:52:50 53° NNE
BREEZE M DEB (TANK) 3.3 20:47:40 10° W 20:53:25 60° NW 20:53:25 60° NW
Cosmos 1570 Rocket 3.9 20:48:44 10° NNW 20:54:07 89° ENE 20:54:32 77° SSE
Okean 3 Rocket 3.8 20:50:43 10° N 20:54:34 65° NNE 20:54:34 65° NNE
Cosmos 2058 4.1 20:53:04 10° NNW 20:56:50 35° W 20:57:24 33° WSW
Resurs 01 Rocket 3.6 20:55:17 17° SW 20:57:18 23° W 21:00:52 10° NW
COSMOS 2406 3.1 20:54:52 34° SSW 20:57:26 86° WNW 21:03:12 10° NNE
CZ-4C R/B 3.2 20:52:35 10° NW 20:59:29 55° NE 21:01:49 42° E
CZ-2C R/B 4.4 21:00:02 10° N 21:04:25 28° WNW 21:08:49 10° WSW
Cosmos 2151 3.6 21:04:11 10° NNW 21:07:34 53° NW 21:07:34 53° NW
Cosmos 1697 Rocket 2.6 21:08:44 10° NNW 21:14:27 89° WSW 21:14:28 88° SW
Cosmos 2369 3.6 21:08:53 10° NNW 21:14:33 89° N 21:14:33 89° N
Cosmos 1455 4.2 21:31:25 27° NW 21:31:25 27° NW 21:33:51 10° N
SPOT 1/Viking Rocket 4.4 21:30:44 40° WSW 21:31:02 40° W 21:35:58 10° NNW
Cosmos 540 Rocket 4.1 21:29:57 10° NNW 21:34:20 52° WNW 21:34:20 52° WNW
SL-16 R/B 3.5 21:31:21 10° N 21:36:11 29° NE 21:36:11 29° NE
Cosmos 2360 Rocket 4.3 21:33:02 10° N 21:36:27 16° NE 21:37:32 15° NE
Nadezhda 3 Rocket 4.4 21:41:27 53° WSW 21:42:31 60° WNW 21:48:43 10° N
Cosmos 2322 Rocket 3.6 21:38:25 10° N 21:43:04 27° NE 21:43:04 27° NE
USA 234 3.3 21:36:55 10° NE 21:43:28 77° NNW 21:49:59 10° WSW
Cosmos 1980 Rocket 2.4 21:39:01 10° NNW 21:43:48 65° NNW 21:43:48 65° NNW
Cosmos 1535 Rocket 4.5 21:41:07 10° N 21:46:59 79° NW 21:46:59 79° NW
ASTEX 1 4.3 21:50:00 47° NNW 21:50:00 47° NNW 21:53:33 10° N
Meteor 2-3 Rocket 4.2 21:50:24 10° NNW 21:55:21 59° WNW 21:55:21 59° WNW
ATLAS CENTAUR R/B 4.0 21:57:32 10° NW 21:58:21 15° NW 21:58:21 15° NW
Terra 3.4 22:08:45 30° WNW 22:08:45 30° WNW 22:11:47 10° NNW
Mayak 1.0 22:03:28 10° N 22:04:58 22° N 22:04:58 22° N
Cosmos 1934 Rocket 4.4 22:05:48 10° NNW 22:11:27 53° WNW 22:11:27 53° WNW
Cosmos 2082 Rocket 2.9 22:15:56 50° NNW 22:15:56 50° NNW 22:20:33 10° NNE
Cosmos 1833 Rocket 4.0 22:20:38 33° WNW 22:21:39 35° NW 22:26:49 10° NNE
Cosmos 2219 Rocket 4.4 22:30:10 10° N 22:33:34 16° NE 22:34:42 15° NE
Cosmos 2344 4.4 22:26:44 10° NW 22:36:29 75° SW 22:38:34 64° S
CZ-4C R/B 3.6 22:41:13 10° NW 22:46:59 44° W 22:46:59 44° W
SL-16 R/B 3.7 23:15:09 10° NW 23:18:02 30° NW 23:18:02 30° NW
Cosmos 2360 Rocket 3.4 23:15:51 10° NNW 23:19:17 38° NNW 23:19:17 38° NNW
USA 234 4.4 23:20:00 10° NE 23:25:59 40° NNW 23:31:58 10° W
Cosmos 2322 Rocket 3.8 23:22:05 10° NNW 23:24:52 29° NW 23:24:52 29° NW
Cosmos 2333 Rocket 3.4 23:38:23 10° NNW 23:42:25 38° NNE 23:42:25 38° NNE
Cosmos 2237 Rocket 4.3 23:40:20 10° N 23:44:28 20° NE 23:46:25 17° ENE
SL-16 R/B 4.0 23:48:42 26° ENE 23:49:44 27° ENE 23:54:50 10° N
